Regional Weather Roundup
Issued by NWS Jackson, KY

Home | Current Version | Previous Version | Graphics & Text | Print | Product List | Glossary On
Versions: 1 2 3 4 5 6 7 8 9 10 11 12 13 14 15 16 17 18 19 20 21 22 23 24 25 26 27
000
ASUS43 KJKL 211710
RWRJKL

EAST KENTUCKY HOURLY WEATHER ROUNDUP
NATIONAL WEATHER SERVICE JACKSON KY
1200 PM EST TUE NOV 21 2017

NOTE: "FAIR" INDICATES FEW OR NO CLOUDS BELOW 12,000 FEET WITH
NO SIGNIFICANT WEATHER AND/OR OBSTRUCTIONS TO VISIBILITY.

* THESE REPORTS ARE NOT UNDER NWS QUALITY CONTROL AND MAY NOT
  REPORT WEATHER SUCH AS PRECIPITATION AND FOG.

KYZ079-080-083-085-087-088-110-112-115-119-120-211800
...EASTERN KENTUCKY...

CITY           SKY/WX    TMP DP  RH WIND       PRES   REMARKS
JACKSON        MOSUNNY   58  39  49 VRB7G23   30.03F
LONDON         MOSUNNY   57  39  51 SW12      30.04F
SOMERSET*      SUNNY     55  32  41 W22       30.06F
MONTICELLO*    MOSUNNY   60  39  45 SW21G26   30.06F
WILLIAMSBURG*  MOSUNNY   59  45  58 SW12G23   30.04F
MIDDLESBORO*   SUNNY     54  38  54 S9        30.08F
HARLAN APT*    CLOUDY    57  43  58 SE5       30.06F
PIKE CO APT*     N/A     56  33  42 S3        30.03F
BIG SANDY APT* CLOUDY    56  35  45 SW7       30.04F
MOREHEAD APT*  MOSUNNY   57  32  38 SW17G23   30.02F
$$

KYZ035-036-041-042-044-050-067-078-099-211800
...CENTRAL KENTUCKY...

CITY           SKY/WX    TMP DP  RH WIND       PRES   REMARKS
MT STERLING*   SUNNY     54  36  50 W15G29    30.03F
FLEMING/MASON* SUNNY     54  36  50 SW16G25   30.00F
DANVILLE*      SUNNY     52  34  50 SW20G28   30.03F
LEXINGTON      SUNNY     54  32  43 SW22G32   30.01F
FRANKFORT      SUNNY     54  29  38 S20G30    29.98F
LOUISVILLE     MOSUNNY   55  28  35 SW17G29   29.99F
LEBANON*         N/A     54  30  40 S16G26    30.02F
GLASGOW*       SUNNY     55  30  37 SW15G21   30.05F
BOWLING GREEN  SUNNY     55  31  39 SW13      30.05F
$$

KYZ091>093-OHZ055-061-077-WVZ005-015-034-035-042-211800
...SOUTHERN OHIO/WEST VIRGINIA...

CITY           SKY/WX    TMP DP  RH WIND       PRES   REMARKS
COVINGTON      MOSUNNY   51  31  46 SW17G30   29.94F
COLUMBUS       PTSUNNY   49  31  49 S17G23    29.93F
DAYTON         PTSUNNY   49  31  49 SW23G32   29.89F
WILMINGTON     SUNNY     50  33  52 SW17G32   29.92F
HUNTINGTON     MOSUNNY   53  33  46 SW9       30.01F
CHARLESTON     MOSUNNY   60  31  33 SW15G23   30.02F
PINEVILLE*     SUNNY     54  34  46 MISG      30.10F
BECKLEY        CLOUDY    56  33  42 SW15G23   30.06F
BLUEFIELD      CLOUDY    56  35  45 SW10G17   30.07F
LOGAN CO APT*    N/A     57  32  38 VRB7      30.03F
$$

VAZ002-007-008-TNZ017-027-036-066-071-211800
...SOUTHWEST VIRGINIA/EAST TENNESSEE...

CITY           SKY/WX    TMP DP  RH WIND       PRES   REMARKS
WISE*          SUNNY     55  37  50 S17G25    30.07F
JONESVILLE*      N/A     54  32  43 CALM      30.11F
ABINGDON*      SUNNY     58  42  54 SW9       30.08F
BRISTOL        MOSUNNY   51  34  52 CALM      30.09F
MORRISTOWN*    SUNNY     55  36  47 CALM      30.08F
SEVIERVILLE*   MOSUNNY   48  36  61 CALM      30.09F
KNOXVILLE      MOSUNNY   52  39  61 CALM      30.08F
LAFOLLETTE*    PTSUNNY   55  41  58 CALM      30.10F
OAK RIDGE      PTSUNNY   53  40  61 VRB6      30.10F
CROSSVILLE     CLOUDY    54  45  71 S10G17    30.08S
NASHVILLE      MOSUNNY   56  31  38 SW12G17   30.07F
$$

...KEY TO REMARKS...
VSB - VISIBILITY IN MILES
WCI - WIND CHILL INDEX
HX  - HEAT INDEX

$$




USA.gov is the U.S. government's official web portal to all federal, state and local government web resources and services.